User: anonymous   Login
Location: Unspecified
(0.0000°N, 0.0000°E)
Time: 11:03:14
(UTC+00:00)
Language:

HODOYOSHI 1 - Orbit

View from above orbital plane
View from above orbital plane
View from above satellite
View from above satellite

Ground track
Ground track

The orbit data is extracted from the following two-line orbital elements,

1 40299U 14070B   17352.14591425  .00000767  00000-0  35896-4 0  9990
2 40299  97.3929  72.0223 0013461 159.5895 221.4392 15.22649459172930
Epoch (UTC): 18 December 2017 03:30:06
Eccentricity: 0.0013461
inclination: 97.3929°
perigee height: 488 km
apogee height: 507 km
right ascension of ascending node: 72.0223°
argument of perigee: 159.5895°
revolutions per day: 15.22649459
mean anomaly at epoch: 221.4392°
orbit number at epoch: 17293

The dashed part of the orbit path shows where the satellite is in the earth's shadow,  

DLR